Home   Weather   Manaus   Past weeks

Flag for Brazil Past Weather in Manaus, Amazonas, Brazil — Yesterday and Last 2 Weeks

Now
75 °F

Passing clouds.


Feels Like: 75 °F
Forecast: 74 / 84 °F
Wind: 3 mph from Northwest

Location: Manaus Aeroporto

Current Time: Apr 29, 2017 at 5:33:08 am

Latest Report: Apr 29, 2017 at 4:00 am


Visibility: N/A

Pressure: 29.89 "Hg

Humidity: 89%

Dew Point: 72 °F

Location of ManausLocation

Past Weather in Manaus — Graph

°F

Manaus Temperature Yesterday

Maximum temperature yesterday: 86 °F (at 1:00 pm)
Minimum temperature yesterday: 75 °F (at 5:00 am)
Average temperature yesterday: 79 °F

High & Low Weather Summary for the Past Weeks

 TemperatureHumidityPressure
High90 °F (Apr 26, 2:00 pm)94% (Apr 14, 11:18 am)30.01 "Hg (Apr 14, 11:18 am)
Low72 °F (Apr 16, 11:00 am)59% (Apr 27, 3:00 pm)29.74 "Hg (Apr 19, 5:00 pm)
Average80 °F84%29.86 "Hg
* Reported Apr 14 3:00 am — Apr 29 3:00 am, Manaus, Weather by CustomWeather, © 2017

Note: Actual official high and low records may vary slightly from our data, if they occured in-between our weather recording intervals... More about our weather records

Advertising

Manaus Weather History for the Previous 24 Hours

Scroll right to see more
 ConditionsComfort  
Time TempWeatherWind HumidityBarometerVisibility
3:00 am
Sat, Apr 29
77 °FPassing clouds.5 mph89%29.89 "HgN/A
2:00 am77 °FPassing clouds.5 mph89%29.89 "HgN/A
1:00 am77 °FPassing clouds.3 mph89%29.92 "HgN/A
12:00 am77 °FPassing clouds.3 mph89%29.92 "HgN/A
11:00 pm
Fri, Apr 28
77 °FPassing clouds.3 mph89%29.92 "HgN/A
10:00 pm77 °FPassing clouds.2 mph94%29.95 "HgN/A
9:00 pm77 °FPassing clouds.2 mph94%29.92 "HgN/A
8:00 pm79 °FPassing clouds.6 mph84%29.89 "HgN/A
7:00 pm79 °FPassing clouds.6 mph84%29.86 "HgN/A
6:00 pm79 °FPassing clouds.5 mph84%29.86 "HgN/A
5:00 pm79 °FPartly sunny.5 mph84%29.83 "HgN/A
4:00 pm79 °FBroken clouds.3 mph84%29.86 "HgN/A
3:00 pm77 °FBroken clouds.6 mph89%29.86 "HgN/A
2:00 pm77 °FThunderstorms. Partly sunny.8 mph89%29.89 "Hg4 mi
1:34 pm79 °FRain. Partly sunny.13 mph84%N/A1 mi
1:00 pm86 °FPartly sunny.2 mph66%29.92 "HgN/A
12:00 pm82 °FBroken clouds.5 mph74%29.95 "HgN/A
11:00 am81 °FPartly sunny.3 mph84%29.95 "HgN/A
10:00 am81 °FPartly sunny.3 mph84%29.98 "HgN/A
9:00 am81 °FPartly sunny.5 mph84%29.98 "HgN/A
8:00 am79 °FPartly sunny.5 mph89%29.95 "HgN/A
7:00 am77 °FPartly sunny.3 mph94%29.92 "HgN/A
6:00 am75 °FBroken clouds.2 mph94%29.89 "HgN/A
5:00 am75 °FPartly cloudy.6 mph94%29.89 "HgN/A
Weather by CustomWeather, © 2017

See weather overviewHow to use our weather pages